CFG455 EDDH-LGKR

Flight info

Callsign CFG455
Flight time 2h 19m
Altitude 39000
Route AMLUH2G AMLUH M852 DENIX DCT ZUCKA DCT ARMUT DCT LAMSI DCT PETOV DCT ZAG DCT SOLGU DCT BIGLO DCT RODON DCT LIMJA DCT PITAS PITAS2T
Aircraft A20N/M-V/N

Departure

Time 2026-04-22 14:02
Airport Hamburg Helmut Schmidt Airport (EDDH)

Arrival

Time 2026-04-22 16:22
Airport Corfu Ioannis Kapodistrias International Airport (LGKR)
Time Latitude Longitude Altitude Speed Heading
2026-04-22 13:35 53.63113 10.00376 48 ft 0 kts 87°
2026-04-22 13:52 53.63113 10.00367 48 ft 2 kts 88°
2026-04-22 13:52 53.63113 10.00335 46 ft 3 kts 91°
2026-04-22 13:52 53.63114 10.00301 45 ft 3 kts 99°
2026-04-22 13:53 53.63119 10.00270 46 ft 3 kts 128°
2026-04-22 13:53 53.63124 10.00258 44 ft 2 kts 160°
2026-04-22 13:53 53.63130 10.00255 42 ft 1 kts 176°
2026-04-22 13:57 53.63112 10.00257 44 ft 9 kts 176°
2026-04-22 13:57 53.63069 10.00249 40 ft 7 kts 210°
2026-04-22 13:57 53.63014 10.00199 46 ft 11 kts 208°
2026-04-22 13:57 53.62955 10.00139 45 ft 9 kts 212°
2026-04-22 13:58 53.62894 10.00073 45 ft 9 kts 212°
2026-04-22 13:58 53.62856 10.00000 45 ft 8 kts 238°
2026-04-22 13:58 53.62844 9.99963 45 ft 0 kts 243°
2026-04-22 13:58 53.62841 9.99953 45 ft 2 kts 243°
2026-04-22 13:59 53.62840 9.99951 45 ft 0 kts 243°
2026-04-22 13:59 53.62837 9.99940 45 ft 2 kts 243°
2026-04-22 13:59 53.62828 9.99910 45 ft 4 kts 243°
2026-04-22 13:59 53.62813 9.99850 46 ft 7 kts 256°
2026-04-22 14:00 53.62835 9.99774 45 ft 8 kts 318°
2026-04-22 14:00 53.62846 9.99764 46 ft 1 kts 326°
2026-04-22 14:00 53.62866 9.99744 45 ft 5 kts 330°
2026-04-22 14:00 53.62870 9.99740 44 ft 0 kts 331°
2026-04-22 14:02 53.62893 9.99719 47 ft 23 kts 331°
2026-04-22 14:02 53.63283 9.99383 50 ft 101 kts 333°
2026-04-22 14:02 53.64093 9.98671 115 ft 153 kts 332°
2026-04-22 14:02 53.65036 9.97882 826 ft 157 kts 332°
2026-04-22 14:03 53.66060 9.97099 1660 ft 168 kts 334°
2026-04-22 14:03 53.67221 9.96223 2214 ft 200 kts 333°
2026-04-22 14:03 53.68607 9.95150 2753 ft 238 kts 335°
2026-04-22 14:03 53.70254 9.94348 3642 ft 253 kts 355°
2026-04-22 14:04 53.72019 9.94841 4670 ft 270 kts 27°
2026-04-22 14:04 53.73355 9.97072 5722 ft 272 kts 60°
2026-04-22 14:04 53.73724 10.00089 6695 ft 271 kts 90°
2026-04-22 14:04 53.73461 10.03250 7653 ft 275 kts 99°
2026-04-22 14:05 53.72937 10.06433 7872 ft 287 kts 107°
2026-04-22 14:05 53.72155 10.09557 7498 ft 291 kts 114°
2026-04-22 14:05 53.70221 10.15559 7045 ft 287 kts 117°
2026-04-22 14:06 53.69207 10.18446 7382 ft 286 kts 125°
2026-04-22 14:06 53.67702 10.20650 8140 ft 291 kts 152°
2026-04-22 14:06 53.65809 10.21747 9116 ft 294 kts 164°
2026-04-22 14:06 53.63820 10.22658 10009 ft 298 kts 164°
2026-04-22 14:07 53.61809 10.23583 10864 ft 302 kts 163°
2026-04-22 14:07 53.59769 10.24520 11723 ft 306 kts 163°
2026-04-22 14:07 53.57706 10.25461 12562 ft 309 kts 163°
2026-04-22 14:07 53.55619 10.26419 13380 ft 313 kts 163°
2026-04-22 14:08 53.53504 10.27390 14204 ft 317 kts 163°
2026-04-22 14:08 53.51397 10.28359 14931 ft 320 kts 163°
2026-04-22 14:08 53.49238 10.29348 15653 ft 323 kts 163°
2026-04-22 14:08 53.47059 10.30341 16361 ft 326 kts 163°
2026-04-22 14:09 53.44855 10.31346 17067 ft 330 kts 163°
2026-04-22 14:09 53.42631 10.32362 17778 ft 333 kts 163°
2026-04-22 14:09 53.40364 10.33391 18244 ft 346 kts 163°
2026-04-22 14:09 53.37978 10.34472 18435 ft 364 kts 163°
2026-04-22 14:10 53.35468 10.35601 18640 ft 382 kts 163°
2026-04-22 14:10 53.32868 10.36768 19022 ft 391 kts 163°
2026-04-22 14:10 53.30237 10.37946 19667 ft 392 kts 163°
2026-04-22 14:10 53.27624 10.39115 20271 ft 395 kts 163°
2026-04-22 14:11 53.24963 10.40302 20869 ft 398 kts 163°
2026-04-22 14:11 53.22280 10.41500 21475 ft 400 kts 163°
2026-04-22 14:11 53.19583 10.42704 22061 ft 403 kts 163°
2026-04-22 14:11 53.16862 10.43914 22654 ft 406 kts 163°
2026-04-22 14:12 53.14130 10.45131 23229 ft 408 kts 162°
2026-04-22 14:12 53.11344 10.46191 23792 ft 413 kts 167°
2026-04-22 14:12 53.08547 10.47052 24287 ft 415 kts 167°
2026-04-22 14:12 53.05697 10.47934 24754 ft 418 kts 167°
2026-04-22 14:13 53.02828 10.48825 25224 ft 421 kts 167°
2026-04-22 14:13 52.99941 10.49722 25675 ft 424 kts 167°
2026-04-22 14:13 52.97033 10.50625 26131 ft 426 kts 167°
2026-04-22 14:13 52.94114 10.51530 26569 ft 428 kts 167°
2026-04-22 14:14 52.91173 10.52441 26995 ft 431 kts 167°
2026-04-22 14:14 52.88215 10.53355 27407 ft 434 kts 166°
2026-04-22 14:14 52.85240 10.54273 27817 ft 436 kts 166°
2026-04-22 14:14 52.82290 10.55182 28199 ft 438 kts 166°
2026-04-22 14:15 52.79282 10.56108 28598 ft 441 kts 166°
2026-04-22 14:15 52.76260 10.57037 28962 ft 443 kts 166°
2026-04-22 14:15 52.73214 10.57972 29320 ft 446 kts 166°
2026-04-22 14:15 52.70157 10.58909 29666 ft 448 kts 166°
2026-04-22 14:16 52.67086 10.59848 30024 ft 450 kts 166°
2026-04-22 14:16 52.63998 10.60792 30357 ft 452 kts 166°
2026-04-22 14:16 52.60934 10.61728 30633 ft 455 kts 166°
2026-04-22 14:16 52.57820 10.62677 30914 ft 457 kts 166°
2026-04-22 14:17 52.54683 10.63633 31198 ft 459 kts 166°
2026-04-22 14:17 52.51528 10.64592 31490 ft 461 kts 166°
2026-04-22 14:17 52.48371 10.65549 31835 ft 462 kts 166°
2026-04-22 14:17 52.45217 10.66504 32179 ft 462 kts 166°
2026-04-22 14:18 52.42050 10.67461 32521 ft 462 kts 166°
2026-04-22 14:18 52.38888 10.68417 32863 ft 462 kts 166°
2026-04-22 14:18 52.35721 10.69373 33203 ft 463 kts 166°
2026-04-22 14:18 52.32554 10.70328 33512 ft 463 kts 166°
2026-04-22 14:19 52.29426 10.71269 33813 ft 463 kts 166°
2026-04-22 14:19 52.26255 10.72222 34123 ft 464 kts 166°
2026-04-22 14:19 52.23083 10.73173 34407 ft 464 kts 166°
2026-04-22 14:19 52.19905 10.74124 34658 ft 464 kts 166°
2026-04-22 14:20 52.13556 10.76022 35131 ft 464 kts 166°
2026-04-22 14:20 52.10381 10.76968 35374 ft 464 kts 166°
2026-04-22 14:20 52.07202 10.77915 35588 ft 464 kts 167°
2026-04-22 14:21 52.00887 10.79792 36033 ft 464 kts 167°
2026-04-22 14:21 51.97708 10.80734 36243 ft 465 kts 167°
2026-04-22 14:22 51.91346 10.82616 36655 ft 465 kts 167°
2026-04-22 14:22 51.88164 10.83555 36847 ft 465 kts 167°
2026-04-22 14:22 51.81843 10.85417 37240 ft 465 kts 167°
2026-04-22 14:23 51.78659 10.86353 37418 ft 465 kts 167°
2026-04-22 14:23 51.75476 10.87287 37608 ft 465 kts 167°
2026-04-22 14:23 51.72298 10.88219 37772 ft 465 kts 167°
2026-04-22 14:23 51.69126 10.89240 37946 ft 463 kts 163°
2026-04-22 14:24 51.66054 10.90771 38095 ft 461 kts 156°
2026-04-22 14:24 51.63124 10.92832 38246 ft 459 kts 151°
2026-04-22 14:24 51.61221 10.94311 38344 ft 460 kts 151°
2026-04-22 14:24 51.57398 10.97263 38532 ft 460 kts 152°
2026-04-22 14:25 51.54519 10.99468 38673 ft 460 kts 152°
2026-04-22 14:25 51.51627 11.01671 38807 ft 460 kts 152°
2026-04-22 14:25 51.48731 11.03871 38941 ft 460 kts 152°
2026-04-22 14:25 51.45841 11.06062 39049 ft 460 kts 152°
2026-04-22 14:26 51.43925 11.07512 39115 ft 460 kts 152°
2026-04-22 14:26 51.38134 11.11890 39292 ft 461 kts 152°
2026-04-22 14:27 51.31395 11.16969 39336 ft 460 kts 152°
2026-04-22 14:27 51.25599 11.21324 39335 ft 461 kts 152°
2026-04-22 14:28 51.20773 11.24941 39338 ft 461 kts 152°
2026-04-22 14:28 51.14966 11.29282 39339 ft 461 kts 152°
2026-04-22 14:29 51.09148 11.33620 39342 ft 462 kts 152°
2026-04-22 14:29 51.03322 11.37951 39343 ft 462 kts 152°
2026-04-22 14:30 50.97527 11.42247 39341 ft 463 kts 152°
2026-04-22 14:30 50.91686 11.46566 39343 ft 463 kts 152°
2026-04-22 14:31 50.85836 11.50879 39339 ft 464 kts 152°
2026-04-22 14:31 50.79979 11.55185 39341 ft 464 kts 152°
2026-04-22 14:32 50.74120 11.59481 39336 ft 464 kts 153°
2026-04-22 14:32 50.68297 11.63739 39337 ft 464 kts 153°
2026-04-22 14:33 50.62431 11.68017 39333 ft 465 kts 153°
2026-04-22 14:33 50.56561 11.72286 39326 ft 465 kts 153°
2026-04-22 14:34 50.50687 11.76544 39318 ft 465 kts 153°
2026-04-22 14:34 50.44853 11.80765 39307 ft 465 kts 153°
2026-04-22 14:35 50.38981 11.85000 39296 ft 465 kts 153°
2026-04-22 14:35 50.33101 11.89228 39294 ft 465 kts 153°
2026-04-22 14:36 50.27222 11.93445 39296 ft 465 kts 153°
2026-04-22 14:36 50.21379 11.97625 39297 ft 465 kts 153°
2026-04-22 14:37 50.15494 12.01824 39301 ft 465 kts 153°
2026-04-22 14:37 50.09612 12.06010 39300 ft 465 kts 153°
2026-04-22 14:38 50.03719 12.10190 39299 ft 465 kts 153°
2026-04-22 14:38 49.97831 12.14355 39282 ft 465 kts 153°
2026-04-22 14:39 49.91973 12.18490 39273 ft 466 kts 153°
2026-04-22 14:39 49.86068 12.22646 39264 ft 466 kts 153°
2026-04-22 14:40 49.77201 12.28867 39248 ft 467 kts 153°
2026-04-22 14:40 49.71503 12.33470 39264 ft 464 kts 144°
2026-04-22 14:41 49.66340 12.39414 39259 ft 463 kts 139°
2026-04-22 14:41 49.61286 12.45572 39262 ft 463 kts 139°
2026-04-22 14:42 49.56203 12.51702 39270 ft 464 kts 139°
2026-04-22 14:42 49.51137 12.57781 39280 ft 465 kts 139°
2026-04-22 14:43 49.46031 12.63890 39284 ft 466 kts 139°
2026-04-22 14:43 49.40910 12.70002 39279 ft 466 kts 139°
2026-04-22 14:44 49.35781 12.76107 39282 ft 467 kts 140°
2026-04-22 14:44 49.30685 12.82159 39280 ft 467 kts 140°
2026-04-22 14:45 49.25544 12.88246 39286 ft 467 kts 140°
2026-04-22 14:45 49.20401 12.94319 39275 ft 467 kts 140°
2026-04-22 14:46 49.15258 13.00375 39270 ft 466 kts 140°
2026-04-22 14:46 49.10153 13.06372 39261 ft 466 kts 140°
2026-04-22 14:47 49.05004 13.12403 39265 ft 467 kts 140°
2026-04-22 14:47 48.99853 13.18421 39265 ft 467 kts 140°
2026-04-22 14:48 48.94689 13.24438 39258 ft 467 kts 140°
2026-04-22 14:48 48.89555 13.30403 39259 ft 468 kts 140°
2026-04-22 14:49 48.84382 13.36400 39257 ft 468 kts 140°
2026-04-22 14:49 48.79203 13.42385 39257 ft 468 kts 140°
2026-04-22 14:50 48.74016 13.48365 39252 ft 468 kts 140°
2026-04-22 14:50 48.68826 13.54333 39248 ft 469 kts 140°
2026-04-22 14:51 48.63653 13.60240 39247 ft 469 kts 141°
2026-04-22 14:51 48.58328 13.65944 39247 ft 470 kts 142°
2026-04-22 14:52 48.52985 13.71632 39247 ft 470 kts 142°
2026-04-22 14:52 48.47659 13.77331 39240 ft 469 kts 142°
2026-04-22 14:53 48.42373 13.82982 39238 ft 469 kts 142°
2026-04-22 14:53 48.37048 13.88659 39237 ft 469 kts 142°
2026-04-22 14:54 48.31721 13.94322 39237 ft 469 kts 142°
2026-04-22 14:54 48.26390 13.99974 39233 ft 469 kts 142°
2026-04-22 14:55 48.21084 14.05585 39241 ft 470 kts 142°
2026-04-22 14:55 48.15745 14.11218 39236 ft 470 kts 143°
2026-04-22 14:56 48.10394 14.16847 39241 ft 470 kts 143°
2026-04-22 14:56 48.05037 14.22470 39236 ft 471 kts 143°
2026-04-22 14:57 47.99712 14.28042 39237 ft 471 kts 143°
2026-04-22 14:57 47.94338 14.33652 39234 ft 471 kts 143°
2026-04-22 14:58 47.88958 14.39254 39228 ft 472 kts 143°
2026-04-22 14:58 47.83573 14.44849 39235 ft 472 kts 143°
2026-04-22 14:59 47.78213 14.50401 39230 ft 473 kts 143°
2026-04-22 14:59 47.72810 14.55981 39226 ft 473 kts 143°
2026-04-22 15:00 47.67397 14.61558 39215 ft 474 kts 143°
2026-04-22 15:00 47.61981 14.67125 39223 ft 474 kts 143°
2026-04-22 15:01 47.56561 14.72682 39211 ft 474 kts 143°
2026-04-22 15:01 47.51176 14.78190 39205 ft 474 kts 143°
2026-04-22 15:02 47.45750 14.83724 39197 ft 474 kts 143°
2026-04-22 15:02 47.40320 14.89249 39189 ft 474 kts 144°
2026-04-22 15:03 47.34886 14.94765 39185 ft 475 kts 144°
2026-04-22 15:03 47.29480 15.00237 39184 ft 475 kts 144°
2026-04-22 15:04 47.24029 15.05741 39186 ft 475 kts 144°
2026-04-22 15:04 47.18572 15.11237 39185 ft 475 kts 144°
2026-04-22 15:05 47.13114 15.16721 39184 ft 475 kts 144°
2026-04-22 15:05 47.07648 15.22198 39186 ft 476 kts 144°
2026-04-22 15:06 47.02218 15.27625 39183 ft 476 kts 144°
2026-04-22 15:06 46.96747 15.33080 39179 ft 476 kts 144°
2026-04-22 15:07 46.91276 15.38521 39179 ft 476 kts 144°
2026-04-22 15:07 46.85797 15.43957 39176 ft 476 kts 144°
2026-04-22 15:08 46.80345 15.49351 39178 ft 477 kts 145°
2026-04-22 15:08 46.74851 15.54774 39175 ft 477 kts 145°
2026-04-22 15:09 46.69349 15.60192 39182 ft 478 kts 145°
2026-04-22 15:09 46.63837 15.65605 39184 ft 478 kts 145°
2026-04-22 15:10 46.58318 15.71012 39184 ft 479 kts 145°
2026-04-22 15:10 46.52823 15.76382 39188 ft 479 kts 145°
2026-04-22 15:11 46.47284 15.81781 39188 ft 480 kts 145°
2026-04-22 15:11 46.41739 15.87173 39190 ft 480 kts 145°
2026-04-22 15:12 46.36193 15.92555 39191 ft 480 kts 145°
2026-04-22 15:12 46.30648 15.97842 39194 ft 481 kts 148°
2026-04-22 15:13 46.24806 16.02560 39195 ft 481 kts 150°
2026-04-22 15:13 46.18952 16.07253 39198 ft 481 kts 150°
2026-04-22 15:14 46.13101 16.11940 39201 ft 481 kts 150°
2026-04-22 15:14 46.07285 16.16583 39201 ft 481 kts 151°
2026-04-22 15:15 46.01424 16.21250 39202 ft 481 kts 151°
2026-04-22 15:15 45.95561 16.25906 39197 ft 481 kts 151°
2026-04-22 15:16 45.89698 16.30552 39198 ft 481 kts 151°
2026-04-22 15:16 45.83833 16.35174 39195 ft 481 kts 151°
2026-04-22 15:17 45.78005 16.39754 39193 ft 481 kts 151°
2026-04-22 15:17 45.72134 16.44359 39193 ft 481 kts 152°
2026-04-22 15:18 45.66268 16.48949 39195 ft 481 kts 152°
2026-04-22 15:18 45.60399 16.53530 39194 ft 481 kts 152°
2026-04-22 15:19 45.54570 16.58068 39192 ft 480 kts 152°
2026-04-22 15:19 45.48699 16.62628 39188 ft 480 kts 152°
2026-04-22 15:20 45.42828 16.67177 39190 ft 480 kts 152°
2026-04-22 15:20 45.36955 16.71717 39187 ft 480 kts 152°
2026-04-22 15:21 45.31079 16.76248 39186 ft 481 kts 152°
2026-04-22 15:21 45.25241 16.80741 39186 ft 481 kts 152°
2026-04-22 15:22 45.19353 16.85259 39187 ft 481 kts 153°
2026-04-22 15:22 45.13461 16.89771 39187 ft 482 kts 153°
2026-04-22 15:23 45.07561 16.94277 39186 ft 482 kts 153°
2026-04-22 15:23 45.01693 16.98750 39185 ft 483 kts 153°
2026-04-22 15:24 44.95778 17.03247 39187 ft 483 kts 153°
2026-04-22 15:24 44.89857 17.07738 39185 ft 483 kts 153°
2026-04-22 15:25 44.83932 17.12223 39186 ft 483 kts 153°
2026-04-22 15:25 44.77997 17.16703 39187 ft 484 kts 153°
2026-04-22 15:26 44.72103 17.21141 39183 ft 484 kts 153°
2026-04-22 15:26 44.66162 17.25605 39179 ft 484 kts 154°
2026-04-22 15:27 44.60214 17.30064 39173 ft 485 kts 154°
2026-04-22 15:27 44.54261 17.34517 39172 ft 485 kts 154°
2026-04-22 15:28 44.48344 17.38932 39170 ft 485 kts 154°
2026-04-22 15:28 44.42376 17.43375 39167 ft 486 kts 154°
2026-04-22 15:29 44.36402 17.47811 39169 ft 486 kts 154°
2026-04-22 15:30 44.27479 17.54419 39160 ft 486 kts 154°
2026-04-22 15:30 44.21498 17.58836 39152 ft 486 kts 154°
2026-04-22 15:31 44.15516 17.63244 39157 ft 486 kts 155°
2026-04-22 15:31 44.09470 17.67449 39143 ft 484 kts 160°
2026-04-22 15:32 44.03333 17.71157 39139 ft 484 kts 159°
2026-04-22 15:32 43.97156 17.74912 39145 ft 485 kts 159°
2026-04-22 15:33 43.90976 17.78663 39135 ft 485 kts 160°
2026-04-22 15:33 43.84793 17.82405 39122 ft 486 kts 160°
2026-04-22 15:34 43.78594 17.86147 39115 ft 486 kts 160°
2026-04-22 15:34 43.72432 17.89857 39118 ft 487 kts 160°
2026-04-22 15:35 43.67269 17.92960 39104 ft 487 kts 160°
2026-04-22 15:35 43.59998 17.97320 39087 ft 488 kts 160°
2026-04-22 15:36 43.53767 18.01047 39063 ft 488 kts 160°
2026-04-22 15:36 43.47574 18.04744 39050 ft 489 kts 160°
2026-04-22 15:37 43.41329 18.08462 39042 ft 489 kts 160°
2026-04-22 15:37 43.35077 18.12176 39040 ft 490 kts 160°
2026-04-22 15:38 43.28815 18.15888 39039 ft 490 kts 160°
2026-04-22 15:38 43.19451 18.21424 39037 ft 491 kts 160°
2026-04-22 15:39 43.13173 18.25125 39035 ft 492 kts 160°
2026-04-22 15:39 43.06888 18.28821 39036 ft 492 kts 160°
2026-04-22 15:40 43.00642 18.32487 39027 ft 492 kts 160°
2026-04-22 15:40 42.94354 18.36169 39025 ft 492 kts 161°
2026-04-22 15:41 42.88064 18.39844 39015 ft 491 kts 161°
2026-04-22 15:41 42.81782 18.43507 39004 ft 491 kts 161°
2026-04-22 15:42 42.75542 18.47137 39008 ft 491 kts 161°
2026-04-22 15:42 42.69256 18.50786 39004 ft 491 kts 161°
2026-04-22 15:43 42.62970 18.54426 38999 ft 491 kts 161°
2026-04-22 15:43 42.56678 18.58062 39011 ft 491 kts 161°
2026-04-22 15:44 42.50388 18.61689 39013 ft 491 kts 161°
2026-04-22 15:44 42.44143 18.65281 39020 ft 491 kts 161°
2026-04-22 15:45 42.37852 18.68893 39018 ft 491 kts 162°
2026-04-22 15:45 42.31536 18.72409 39026 ft 489 kts 166°
2026-04-22 15:46 42.25083 18.75272 39016 ft 488 kts 167°
2026-04-22 15:46 42.18670 18.78111 39006 ft 489 kts 167°
2026-04-22 15:47 42.12207 18.80972 38997 ft 489 kts 167°
2026-04-22 15:47 42.05745 18.83826 38992 ft 489 kts 167°
2026-04-22 15:48 41.99277 18.86677 38989 ft 489 kts 167°
2026-04-22 15:48 41.92851 18.89503 38992 ft 489 kts 168°
2026-04-22 15:49 41.86374 18.92345 38991 ft 490 kts 168°
2026-04-22 15:49 41.79894 18.95182 38991 ft 490 kts 168°
2026-04-22 15:50 41.73407 18.98016 38993 ft 491 kts 168°
2026-04-22 15:50 41.66914 19.00848 38995 ft 491 kts 168°
2026-04-22 15:51 41.60460 19.03656 38992 ft 491 kts 168°
2026-04-22 15:51 41.53951 19.06482 38994 ft 492 kts 168°
2026-04-22 15:52 41.47442 19.09301 38992 ft 492 kts 168°
2026-04-22 15:52 41.40949 19.12276 38993 ft 495 kts 166°
2026-04-22 15:53 41.34538 19.15484 38993 ft 496 kts 166°
2026-04-22 15:53 41.28076 19.18672 38990 ft 496 kts 166°
2026-04-22 15:54 41.21598 19.21829 38990 ft 496 kts 166°
2026-04-22 15:54 41.15108 19.24980 38987 ft 497 kts 166°
2026-04-22 15:55 41.08658 19.28106 38990 ft 497 kts 166°
2026-04-22 15:55 41.02159 19.31249 38995 ft 497 kts 166°
2026-04-22 15:56 40.95664 19.34384 38981 ft 496 kts 166°
2026-04-22 15:56 40.89207 19.37497 38742 ft 493 kts 167°
2026-04-22 15:57 40.85983 19.39048 38063 ft 495 kts 167°
2026-04-22 15:57 40.82773 19.40589 37159 ft 499 kts 167°
2026-04-22 15:57 40.79490 19.42164 36168 ft 506 kts 168°
2026-04-22 15:57 40.76150 19.43763 35130 ft 515 kts 168°
2026-04-22 15:58 40.72762 19.45385 34116 ft 520 kts 168°
2026-04-22 15:58 40.69382 19.47010 33314 ft 513 kts 168°
2026-04-22 15:58 40.66064 19.48607 32807 ft 504 kts 169°
2026-04-22 15:58 40.62748 19.50187 32386 ft 511 kts 169°
2026-04-22 15:59 40.59389 19.51780 31775 ft 514 kts 169°
2026-04-22 15:59 40.56031 19.53378 31136 ft 514 kts 169°
2026-04-22 15:59 40.52664 19.54978 30529 ft 515 kts 169°
2026-04-22 15:59 40.49353 19.56551 29882 ft 509 kts 169°
2026-04-22 16:00 40.46052 19.58122 29169 ft 500 kts 169°
2026-04-22 16:00 40.42800 19.59666 28478 ft 493 kts 169°
2026-04-22 16:00 40.39594 19.61183 27775 ft 487 kts 169°
2026-04-22 16:00 40.36413 19.62682 27125 ft 483 kts 169°
2026-04-22 16:01 40.33270 19.64165 26474 ft 477 kts 169°
2026-04-22 16:01 40.30176 19.65626 25858 ft 469 kts 169°
2026-04-22 16:01 40.27123 19.67066 25351 ft 464 kts 169°
2026-04-22 16:01 40.24136 19.68469 24875 ft 461 kts 169°
2026-04-22 16:02 40.21136 19.69879 24394 ft 456 kts 168°
2026-04-22 16:02 40.18169 19.71273 23921 ft 451 kts 169°
2026-04-22 16:02 40.15228 19.72654 23434 ft 446 kts 168°
2026-04-22 16:02 40.12320 19.74016 22878 ft 441 kts 168°
2026-04-22 16:03 40.09448 19.75360 22332 ft 437 kts 168°
2026-04-22 16:03 40.06599 19.76691 21806 ft 433 kts 168°
2026-04-22 16:03 40.03774 19.78011 21270 ft 429 kts 168°
2026-04-22 16:03 40.01016 19.79299 20764 ft 425 kts 167°
2026-04-22 16:04 39.98241 19.80594 20197 ft 422 kts 167°
2026-04-22 16:04 39.95487 19.81877 19583 ft 419 kts 167°
2026-04-22 16:04 39.92764 19.83147 18975 ft 414 kts 166°
2026-04-22 16:04 39.90052 19.84330 18389 ft 407 kts 171°
2026-04-22 16:05 39.88237 19.84855 17963 ft 401 kts 177°
2026-04-22 16:05 39.84587 19.85641 17057 ft 394 kts 177°
2026-04-22 16:05 39.81909 19.86231 16413 ft 387 kts 176°
2026-04-22 16:05 39.79300 19.86809 15787 ft 384 kts 176°
2026-04-22 16:06 39.76683 19.87389 15168 ft 379 kts 176°
2026-04-22 16:06 39.74101 19.87962 14550 ft 374 kts 176°
2026-04-22 16:06 39.71533 19.88528 13920 ft 375 kts 176°
2026-04-22 16:06 39.68969 19.89094 13141 ft 371 kts 175°
2026-04-22 16:07 39.66438 19.89656 12364 ft 366 kts 175°
2026-04-22 16:07 39.63946 19.90209 11604 ft 361 kts 175°
2026-04-22 16:07 39.61482 19.90589 10863 ft 351 kts 184°
2026-04-22 16:07 39.59113 19.90438 10148 ft 341 kts 194°
2026-04-22 16:08 39.56826 19.89824 9390 ft 333 kts 199°
2026-04-22 16:08 39.54584 19.89122 8600 ft 330 kts 198°
2026-04-22 16:08 39.52356 19.88443 7844 ft 327 kts 197°
2026-04-22 16:08 39.50153 19.87782 7099 ft 324 kts 196°
2026-04-22 16:09 39.47965 19.87131 6369 ft 322 kts 195°
2026-04-22 16:09 39.45788 19.86488 5607 ft 320 kts 195°
2026-04-22 16:09 39.43627 19.85849 4863 ft 317 kts 195°
2026-04-22 16:09 39.41535 19.85231 4107 ft 315 kts 195°
2026-04-22 16:10 39.39382 19.84593 3433 ft 311 kts 195°
2026-04-22 16:10 39.37322 19.83987 3132 ft 295 kts 195°
2026-04-22 16:10 39.36026 19.83607 3045 ft 281 kts 195°
2026-04-22 16:10 39.33610 19.82897 2997 ft 251 kts 195°
2026-04-22 16:11 39.31977 19.82413 3003 ft 231 kts 195°
2026-04-22 16:11 39.30468 19.82017 2979 ft 215 kts 184°
2026-04-22 16:11 39.29081 19.82433 2993 ft 201 kts 148°
2026-04-22 16:11 39.28092 19.83614 3009 ft 195 kts 122°
2026-04-22 16:12 39.27551 19.85215 3003 ft 202 kts 98°
2026-04-22 16:12 39.27425 19.87007 3001 ft 201 kts 91°
2026-04-22 16:12 39.27351 19.88811 2995 ft 199 kts 90°
2026-04-22 16:12 39.27310 19.90588 2997 ft 198 kts 88°
2026-04-22 16:13 39.27319 19.92369 2947 ft 199 kts 86°
2026-04-22 16:13 39.27388 19.94145 2886 ft 198 kts 83°
2026-04-22 16:13 39.27516 19.95913 2757 ft 197 kts 81°
2026-04-22 16:13 39.27820 19.97607 2684 ft 190 kts 58°
2026-04-22 16:14 39.28724 19.98807 2580 ft 187 kts 28°
2026-04-22 16:14 39.29901 19.99392 2448 ft 181 kts
2026-04-22 16:14 39.31155 19.99491 2373 ft 180 kts 354°
2026-04-22 16:14 39.32361 19.99306 2299 ft 169 kts 347°
2026-04-22 16:15 39.33457 19.99020 2229 ft 150 kts 344°
2026-04-22 16:15 39.34407 19.98731 2219 ft 129 kts 343°
2026-04-22 16:15 39.35267 19.98461 2157 ft 132 kts 343°
2026-04-22 16:15 39.36168 19.98184 2268 ft 142 kts 347°
2026-04-22 16:16 39.37226 19.98079 2423 ft 159 kts 355°
2026-04-22 16:16 39.38325 19.98027 2491 ft 161 kts 355°
2026-04-22 16:16 39.39449 19.97969 2500 ft 160 kts 355°
2026-04-22 16:16 39.40566 19.97911 2499 ft 160 kts 355°
2026-04-22 16:17 39.41686 19.97851 2500 ft 161 kts 355°
2026-04-22 16:17 39.42793 19.97645 2498 ft 159 kts 342°
2026-04-22 16:17 39.43859 19.97231 2508 ft 162 kts 341°
2026-04-22 16:17 39.44925 19.96818 2454 ft 158 kts 342°
2026-04-22 16:18 39.46001 19.96413 2330 ft 160 kts 341°
2026-04-22 16:18 39.47061 19.96000 2175 ft 159 kts 340°
2026-04-22 16:18 39.48104 19.95509 2104 ft 159 kts 337°
2026-04-22 16:18 39.49115 19.94976 2073 ft 160 kts 335°
2026-04-22 16:19 39.50080 19.94490 2037 ft 138 kts 336°
2026-04-22 16:19 39.50966 19.94094 1963 ft 134 kts 339°
2026-04-22 16:19 39.51846 19.93694 1743 ft 134 kts 339°
2026-04-22 16:19 39.52709 19.93317 1530 ft 130 kts 339°
2026-04-22 16:20 39.53593 19.92979 1411 ft 133 kts 343°
2026-04-22 16:20 39.54483 19.92717 1310 ft 131 kts 345°
2026-04-22 16:20 39.55390 19.92454 1083 ft 134 kts 347°
2026-04-22 16:20 39.56287 19.92272 792 ft 130 kts 345°
2026-04-22 16:21 39.57198 19.92029 573 ft 138 kts 344°
2026-04-22 16:21 39.58138 19.91759 299 ft 136 kts 344°
2026-04-22 16:21 39.59050 19.91515 88 ft 134 kts 346°
2026-04-22 16:21 39.59911 19.91283 16 ft 100 kts 348°
2026-04-22 16:22 39.60429 19.91163 15 ft 21 kts 353°
2026-04-22 16:22 39.60546 19.91153 14 ft 11 kts
2026-04-22 16:22 39.60557 19.91157 14 ft 2 kts 24°
2026-04-22 16:23 39.60597 19.91204 14 ft 7 kts 40°
2026-04-22 16:23 39.60640 19.91224 14 ft 8 kts 14°
2026-04-22 16:23 39.60699 19.91226 14 ft 9 kts 355°
2026-04-22 16:24 39.60762 19.91199 14 ft 2 kts 343°
2026-04-22 16:24 39.60785 19.91206 14 ft 1 kts 39°
2026-04-22 16:24 39.60794 19.91225 15 ft 0 kts 69°
2026-04-22 16:25 39.60796 19.91234 15 ft 2 kts 71°
2026-04-22 16:25 39.60798 19.91248 14 ft 0 kts 80°